Marion, IN

9:46 PM EDT on September 27, 2016 (GMT -0400)
Marion Municipal

Weather History for KMZZ - December, 2013

Change the Weather History Date:

Saturday, December 21, 2013

  Actual Average (KMIE) Record (KMIE)
Temperature  
Mean Temperature 42 °F 29 °F  
Max Temperature 78 °F 36 °F 60 °F (1967)
Min Temperature 34 °F 22 °F -13 °F (1989)
Degree Days  
Heating Degree Days 22 36  
Month to date heating degree days 694  
Since 1 July heating degree days 1829  
Cooling Degree Days 0 0  
Month to date cooling degree days 0  
Year to date cooling degree days 956  
Moisture  
Dew Point 37 °F    
Average Humidity 99    
Maximum Humidity 100    
Minimum Humidity 94    
Precipitation  
Precipitation 0.82 in 0.10 in 3.33 in (2013)
Month to date precipitation 1.98  
Year to date precipitation 39.22  
Sea Level Pressure  
Sea Level Pressure 29.72 in    
Wind  
Wind Speed 8 mph (NNE)    
Max Wind Speed 24 mph    
Max Gust Speed 34 mph    
Visibility 5 miles    
Events Rain    
T = Trace of Precipitation, MM = Missing Value Source: NWS Daily Summary

Daily Weather History Graph

Daily Weather History Graph

Search for Another Location

Airport or City:

Trip Planner

Search our weather history database for the weather conditions in past years. The results will help you decide how hot, cold, wet, or windy it might be!

Date:

Astronomy

Dec. 21, 2013 Rise Set
Actual Time 8:02 AM EST 5:19 PM EST
Civil Twilight 7:31 AM EST 5:50 PM EST
Nautical Twilight 6:57 AM EST 6:24 PM EST
Astronomical Twilight 6:24 AM EST 6:57 PM EST
Moon 9:35 PM EST (12/21) 10:27 AM EST (12/21)
Length of Visible Light 10h 18m
Length of Day
9h 16m
Waning Gibbous, 84% of the Moon is Illuminated
Dec 21
Waning Gibbous
Dec 25
Last Quarter
Jan 1
New
Jan 7
First Quarter
Jan 15
Full

Hourly Weather History & Observations

Time (EST) Temp. Windchill Dew Point Humidity Pressure Visibility Wind Dir Wind Speed Gust Speed Precip Events Conditions
12:15 AM 51.3 °F - 49.5 °F 94% 29.77 in 7.0 mi West 8.1 mph - 0.01 in   Overcast
12:35 AM 49.6 °F - 48.4 °F 95% 29.78 in 7.0 mi WNW 9.2 mph - 0.01 in   Overcast
12:55 AM 46.9 °F - 45.3 °F 94% 29.79 in 5.0 mi West 9.2 mph - 0.01 in   Overcast
1:15 AM 45.0 °F 40.6 °F 43.7 °F 95% 29.78 in 7.0 mi WNW 8.1 mph - N/A   Overcast
1:35 AM 43.7 °F 38.6 °F 42.8 °F 97% 29.78 in 5.0 mi WNW 9.2 mph - N/A   Overcast
1:55 AM 43.0 °F 37.2 °F 41.9 °F 96% 29.77 in 7.0 mi WNW 10.4 mph - N/A   Overcast
2:15 AM 42.4 °F 38.1 °F 41.4 °F 96% 29.78 in 7.0 mi WNW 6.9 mph - N/A Rain Light Rain
2:35 AM 42.1 °F 36.1 °F 41.2 °F 97% 29.79 in 3.0 mi West 10.4 mph - N/A Rain Rain
2:55 AM 41.4 °F 34.7 °F 40.5 °F 97% 29.81 in 4.0 mi West 11.5 mph - 0.02 in Rain Light Rain
3:15 AM 40.1 °F 34.7 °F 39.4 °F 97% 29.80 in 3.0 mi WNW 8.1 mph - 0.01 in Rain Light Rain
3:35 AM 39.7 °F 35.6 °F 39.2 °F 98% 29.78 in 4.0 mi NW 5.8 mph - 0.03 in Rain Light Rain
3:55 AM 39.4 °F 37.2 °F 38.8 °F 98% 29.78 in 4.0 mi West 3.5 mph - 0.05 in Rain Light Rain
4:15 AM 39.2 °F 35.0 °F 38.7 °F 98% 29.79 in 3.0 mi WNW 5.8 mph - 0.02 in   Overcast
4:35 AM 38.8 °F 32.6 °F 38.5 °F 99% 29.79 in 4.0 mi WNW 9.2 mph - 0.05 in Rain Light Rain
4:55 AM 38.3 °F 30.9 °F 38.1 °F 99% 29.80 in 3.0 mi NW 11.5 mph - 0.07 in Rain Light Rain
5:15 AM 37.6 °F 32.3 °F 37.2 °F 99% 29.78 in 5.0 mi NW 6.9 mph - 0.02 in Rain Light Rain
5:35 AM 37.4 °F 34.9 °F 36.9 °F 98% 29.78 in 5.0 mi WNW 3.5 mph - 0.03 in Rain Light Rain
5:55 AM 37.0 °F 32.4 °F 36.7 °F 99% 29.78 in 4.0 mi NNW 5.8 mph - 0.05 in Rain Light Rain
6:15 AM 36.5 °F 32.7 °F 36.3 °F 99% 29.79 in 7.0 mi NW 4.6 mph - 0.01 in Rain Light Rain
6:35 AM 36.3 °F 30.1 °F 36.0 °F 99% 29.80 in 5.0 mi NW 8.1 mph - 0.03 in Rain Light Rain
6:55 AM 36.0 °F 31.1 °F 35.8 °F 99% 29.79 in 4.0 mi North 5.8 mph - 0.04 in Rain Light Rain
7:15 AM 35.6 °F 32.8 °F 35.4 °F 99% 29.79 in 5.0 mi North 3.5 mph - 0.02 in Rain Light Rain
7:35 AM 35.4 °F - 35.1 °F 99% 29.79 in 5.0 mi Calm Calm - 0.03 in Rain Light Rain
7:55 AM 35.2 °F - 35.1 °F 99% 29.79 in 5.0 mi Calm Calm - 0.05 in Rain Light Rain
8:15 AM 35.2 °F 32.4 °F 35.1 °F 99% 29.79 in 4.0 mi NNE 3.5 mph - 0.01 in Rain Light Rain
8:35 AM 35.4 °F - 35.2 °F 99% 29.81 in 1.8 mi Calm Calm - 0.03 in Rain Light Rain
8:55 AM 35.6 °F 32.8 °F 35.6 °F 100% 29.82 in 2.0 mi North 3.5 mph - 0.05 in Rain Light Rain
9:15 AM 35.4 °F 31.5 °F 35.2 °F 99% 29.82 in 2.5 mi North 4.6 mph - 0.01 in Rain Light Rain
9:35 AM 35.2 °F - 35.2 °F 100% 29.84 in 3.0 mi Calm Calm - 0.03 in Rain Light Rain
9:55 AM 35.1 °F 30.1 °F 35.1 °F 100% 29.82 in 2.5 mi NNE 5.8 mph - 0.05 in Rain Light Rain
10:15 AM 35.2 °F 28.8 °F 35.2 °F 100% 29.79 in 3.0 mi NE 8.1 mph - 0.02 in Rain Rain
10:35 AM 35.4 °F 31.5 °F 35.4 °F 100% 29.79 in 3.0 mi ENE 4.6 mph - 0.04 in Rain Light Rain
10:55 AM 35.6 °F 28.6 °F 35.6 °F 100% 29.77 in 3.0 mi East 9.2 mph - 0.06 in Rain Light Rain
11:15 AM 35.8 °F 28.3 °F 35.8 °F 100% 29.76 in 5.0 mi East 10.4 mph - 0.02 in Rain Light Rain
11:35 AM 36.1 °F 31.4 °F 36.1 °F 100% 29.76 in 5.0 mi ESE 5.8 mph - 0.04 in Rain Light Rain
11:55 AM 36.7 °F 32.9 °F 36.7 °F 100% 29.75 in 5.0 mi ENE 4.6 mph - 0.06 in Rain Light Rain
12:15 PM 36.9 °F 33.1 °F 36.9 °F 100% 29.74 in 5.0 mi ENE 4.6 mph - 0.02 in Rain Light Rain
12:35 PM 37.0 °F 34.5 °F 37.0 °F 100% 29.76 in 5.0 mi NW 3.5 mph - 0.03 in Rain Light Rain
12:55 PM 37.0 °F 33.3 °F 37.0 °F 100% 29.74 in 2.0 mi NE 4.6 mph - 0.04 in Rain Rain
1:15 PM 37.2 °F 32.6 °F 37.2 °F 100% 29.75 in 3.0 mi North 5.8 mph - 0.01 in Rain Light Rain
1:35 PM 37.2 °F 31.2 °F 37.2 °F 100% 29.75 in 2.0 mi North 8.1 mph - 0.02 in Rain Rain
1:55 PM 37.0 °F 30.4 °F 37.0 °F 100% 29.74 in 2.5 mi NNE 9.2 mph - 0.04 in Rain Rain
2:15 PM 36.9 °F 30.7 °F 36.9 °F 100% 29.74 in 3.0 mi NNE 8.1 mph - 0.01 in Rain Light Rain
2:35 PM 36.9 °F 30.7 °F 36.9 °F 100% 29.73 in 5.0 mi NE 8.1 mph - 0.03 in Rain Light Rain
2:55 PM 36.9 °F 30.7 °F 36.9 °F 100% 29.72 in 5.0 mi NNE 8.1 mph - 0.04 in Rain Light Rain
3:15 PM 36.9 °F 29.6 °F 36.9 °F 100% 29.73 in 3.0 mi NNE 10.4 mph - 0.01 in Rain Light Rain
3:35 PM 36.7 °F 29.9 °F 36.7 °F 100% 29.73 in 5.0 mi NNE 9.2 mph - 0.03 in Rain Light Rain
3:55 PM 36.5 °F 29.2 °F 36.5 °F 100% 29.73 in 7.0 mi NE 10.4 mph - 0.04 in Rain Light Rain
4:15 PM 36.5 °F 28.2 °F 36.5 °F 100% 29.72 in 7.0 mi ENE 12.7 mph - 0.01 in Rain Light Rain
4:35 PM 36.5 °F 29.2 °F 36.5 °F 100% 29.71 in 7.0 mi ENE 10.4 mph 18.4 mph 0.02 in Rain Light Rain
4:55 PM 36.5 °F 28.7 °F 36.5 °F 100% 29.70 in 7.0 mi ENE 11.5 mph - 0.03 in   Overcast
5:15 PM 36.5 °F 28.2 °F 36.5 °F 100% 29.69 in 5.0 mi East 12.7 mph - N/A   Overcast
5:35 PM 36.5 °F 28.7 °F 36.5 °F 100% 29.69 in 7.0 mi East 11.5 mph 16.1 mph 0.01 in   Overcast
5:55 PM 36.7 °F 29.4 °F 36.7 °F 100% 29.68 in 7.0 mi East 10.4 mph - 0.02 in Rain Light Rain
6:15 PM 36.9 °F 29.1 °F 36.9 °F 100% 29.68 in 10.0 mi East 11.5 mph - 0.01 in Rain Light Rain
6:35 PM 37.0 °F 29.3 °F 37.0 °F 100% 29.66 in 5.0 mi East 11.5 mph - 0.02 in Rain Light Rain
6:55 PM 37.4 °F 30.3 °F 37.4 °F 100% 29.65 in 5.0 mi East 10.4 mph - 0.02 in Rain Light Rain
7:15 PM 37.4 °F 29.8 °F 37.4 °F 100% 29.65 in 7.0 mi East 11.5 mph - N/A Rain Rain
7:35 PM 37.4 °F 29.3 °F 37.4 °F 100% 29.62 in 5.0 mi ENE 12.7 mph - 0.01 in Rain Rain
7:55 PM 37.4 °F 29.3 °F 37.4 °F 100% 29.61 in 7.0 mi NE 12.7 mph - 0.02 in Rain Light Rain
8:15 PM 37.0 °F 27.7 °F 37.0 °F 100% 29.59 in 5.0 mi ENE 16.1 mph - N/A Rain Rain
8:35 PM 36.7 °F 26.9 °F 36.7 °F 100% 29.59 in 5.0 mi NNE 17.3 mph 21.9 mph 0.01 in Rain Light Rain
8:55 PM 36.5 °F 29.2 °F 36.5 °F 100% 29.61 in 3.0 mi NE 10.4 mph - 0.02 in Rain Rain
9:15 PM 36.1 °F 26.2 °F 36.1 °F 100% 29.58 in 7.0 mi ENE 17.3 mph - N/A Rain Light Rain
9:35 PM 35.6 °F 24.8 °F 35.6 °F 100% 29.55 in 7.0 mi ENE 19.6 mph 26.5 mph 0.01 in   Overcast
9:55 PM 35.6 °F 24.2 °F 35.6 °F 100% 29.53 in 5.0 mi ENE 21.9 mph 27.6 mph 0.01 in Rain Light Rain
10:15 PM 35.1 °F 23.0 °F 35.1 °F 100% 29.52 in 5.0 mi East 24.2 mph 34.5 mph 0.01 in Rain Light Rain
10:35 PM 35.1 °F 26.9 °F 35.1 °F 100% 29.54 in 5.0 mi NE 11.5 mph - 0.01 in Rain Light Rain
10:55 PM 35.1 °F 23.3 °F 35.1 °F 100% 29.49 in 4.0 mi East 23.0 mph 28.8 mph 0.02 in Rain Light Rain
11:15 PM 34.9 °F 25.7 °F 34.9 °F 100% 29.52 in 7.0 mi East 13.8 mph - N/A Rain Light Rain
11:35 PM 35.1 °F 30.1 °F 35.1 °F 100% 29.58 in 7.0 mi NNE 5.8 mph - 0.01 in Rain Light Rain
11:55 PM 34.7 °F 26.4 °F 34.7 °F 100% 29.56 in 7.0 mi East 11.5 mph - 0.01 in Rain Light Rain